Weather History for KWDR - March, 2013

Change the Weather History Date:

Wednesday, March 20, 2013

  Actual Average (KGVL) Record (KGVL)
Temperature  
Mean Temperature 51 °F 54 °F  
Max Temperature 60 °F 64 °F - ()
Min Temperature 42 °F 44 °F - ()
Degree Days  
Heating Degree Days 14 11  
Month to date heating degree days 278  
Since 1 July heating degree days 2742  
Cooling Degree Days 0 0  
Month to date cooling degree days 0  
Year to date cooling degree days 0  
Growing Degree Days 1 (Base 50)    
Moisture  
Dew Point 19 °F    
Average Humidity 29    
Maximum Humidity 43    
Minimum Humidity 17    
Precipitation  
Precipitation 0.00 in 0.17 in - ()
Month to date precipitation 3.71  
Year to date precipitation 13.61  
Sea Level Pressure  
Sea Level Pressure 30.04 in    
Wind  
Wind Speed 7 mph (NW)    
Max Wind Speed 16 mph    
Max Gust Speed 23 mph    
Visibility 10 miles    
Events      
T = Trace of Precipitation, MM = Missing Value Source: NWS Daily Summary

Daily Weather History Graph

Daily Weather History Graph

Search for Another Location

Airport or City:

Trip Planner

Search our weather history database for the weather conditions in past years. The results will help you decide how hot, cold, wet, or windy it might be!

Date:

Astronomy

Mar. 20, 2013 Rise Set
Actual Time 7:38 AM EDT 7:46 PM EDT
Civil Twilight 7:13 AM EDT 8:11 PM EDT
Nautical Twilight 6:44 AM EDT 8:40 PM EDT
Astronomical Twilight 6:14 AM EDT 9:10 PM EDT
Moon 1:35 PM EDT (3/20) 3:02 AM EDT (3/20)
Length of Visible Light 12h 58m
Length of Day
12h 08m
First Quarter, 59% of the Moon is Illuminated
Mar 20
First Quarter
Mar 27
Full
Apr 3
Last Quarter
Apr 10
New
Apr 18
First Quarter

Hourly Weather History & Observations

Time (EDT) Temp. Windchill Dew Point Humidity Pressure Visibility Wind Dir Wind Speed Gust Speed Precip Events Conditions
12:15 AM 50.0 °F - 23.0 °F 35% 30.10 in 10.0 mi NNW 6.9 mph - N/A   Clear
12:35 AM 50.0 °F - 23.0 °F 35% 30.10 in 10.0 mi NNW 6.9 mph - N/A   Clear
12:55 AM 48.2 °F - 24.8 °F 40% 30.09 in 10.0 mi North 8.1 mph - N/A   Clear
1:15 AM 48.2 °F - 23.0 °F 37% 30.09 in 10.0 mi NNW 6.9 mph - N/A   Clear
1:35 AM 48.2 °F - 23.0 °F 37% 30.09 in 10.0 mi NNW 6.9 mph - N/A   Clear
1:55 AM 46.4 °F 42.4 °F 23.0 °F 40% 30.09 in 10.0 mi NNW 8.1 mph - N/A   Clear
2:15 AM 44.6 °F 40.2 °F 23.0 °F 43% 30.09 in 10.0 mi NNW 8.1 mph - N/A   Clear
2:35 AM 44.6 °F 40.7 °F 23.0 °F 43% 30.10 in 10.0 mi NNW 6.9 mph - N/A   Clear
2:55 AM 44.6 °F 40.7 °F 23.0 °F 43% 30.10 in 10.0 mi NNW 6.9 mph - N/A   Clear
3:15 AM 46.4 °F 42.9 °F 19.4 °F 34% 30.10 in 10.0 mi NW 6.9 mph - N/A   Clear
3:35 AM 44.6 °F 40.7 °F 21.2 °F 39% 30.10 in 10.0 mi NNW 6.9 mph - N/A   Clear
3:55 AM 42.8 °F 39.3 °F 21.2 °F 42% 30.09 in 10.0 mi North 5.8 mph - N/A   Clear
4:15 AM 42.8 °F 37.0 °F 21.2 °F 42% 30.08 in 10.0 mi NNW 10.4 mph - N/A   Clear
4:35 AM 44.6 °F 40.7 °F 19.4 °F 37% 30.08 in 10.0 mi NW 6.9 mph - N/A   Clear
4:55 AM 42.8 °F 37.0 °F 19.4 °F 39% 30.08 in 10.0 mi NNW 10.4 mph - N/A   Clear
5:15 AM 42.8 °F 38.0 °F 19.4 °F 39% 30.08 in 10.0 mi NNW 8.1 mph - N/A   Clear
5:35 AM 42.8 °F 37.5 °F 19.4 °F 39% 30.08 in 10.0 mi NNW 9.2 mph - N/A   Clear
5:55 AM 42.8 °F 38.6 °F 19.4 °F 39% 30.09 in 10.0 mi NNW 6.9 mph - N/A   Clear
6:15 AM 42.8 °F 38.6 °F 21.2 °F 42% 30.09 in 10.0 mi NNW 6.9 mph - N/A   Clear
6:35 AM 42.8 °F 39.3 °F 21.2 °F 42% 30.09 in 10.0 mi NNW 5.8 mph - N/A   Clear
6:55 AM 42.8 °F 38.6 °F 21.2 °F 42% 30.10 in 10.0 mi NNW 6.9 mph - N/A   Scattered Clouds
7:15 AM 44.6 °F 42.2 °F 19.4 °F 37% 30.11 in 10.0 mi NW 4.6 mph - N/A   Mostly Cloudy
7:35 AM 44.6 °F 40.2 °F 19.4 °F 37% 30.12 in 10.0 mi NW 8.1 mph - N/A   Overcast
7:55 AM 44.6 °F 41.4 °F 19.4 °F 37% 30.12 in 10.0 mi North 5.8 mph - N/A   Overcast
8:15 AM 44.6 °F 40.7 °F 19.4 °F 37% 30.13 in 10.0 mi NNW 6.9 mph - N/A   Overcast
8:35 AM 46.4 °F 44.3 °F 19.4 °F 34% 30.13 in 10.0 mi NW 4.6 mph - N/A   Overcast
8:55 AM 46.4 °F 42.9 °F 19.4 °F 34% 30.13 in 10.0 mi NNW 6.9 mph - N/A   Overcast
9:15 AM 48.2 °F - 19.4 °F 32% 30.15 in 10.0 mi NW 5.8 mph - N/A   Overcast
9:35 AM 50.0 °F - 17.6 °F 28% 30.15 in 10.0 mi NW 3.5 mph - N/A   Overcast
9:55 AM 50.0 °F - 17.6 °F 28% 30.15 in 10.0 mi NW 3.5 mph - N/A   Mostly Cloudy
10:15 AM 50.0 °F - 17.6 °F 28% 30.15 in 10.0 mi Calm Calm - N/A   Scattered Clouds
10:35 AM 51.8 °F - 19.4 °F 28% 30.15 in 10.0 mi North 4.6 mph - N/A   Clear
10:55 AM 51.8 °F - 17.6 °F 26% 30.16 in 10.0 mi NNW 3.5 mph - N/A   Scattered Clouds
11:15 AM 51.8 °F - 14.0 °F 22% 30.15 in 10.0 mi NNW 3.5 mph - N/A   Overcast
11:35 AM 51.8 °F - 14.0 °F 22% 30.15 in 10.0 mi Calm Calm - N/A   Scattered Clouds
11:55 AM 53.6 °F - 15.8 °F 22% 30.14 in 10.0 mi North 4.6 mph - N/A   Clear
12:15 PM 53.6 °F - 17.6 °F 24% 30.13 in 10.0 mi NNW 4.6 mph - N/A   Clear
12:35 PM 55.4 °F - 17.6 °F 23% 30.11 in 10.0 mi Calm Calm - N/A   Clear
12:55 PM 55.4 °F - 15.8 °F 21% 30.10 in 10.0 mi North 4.6 mph - N/A   Clear
1:15 PM 55.4 °F - 14.0 °F 20% 30.09 in 10.0 mi Calm Calm - N/A   Clear
1:35 PM 57.2 °F - 14.0 °F 18% 30.08 in 10.0 mi NNW 5.8 mph - N/A   Clear
1:55 PM 59.0 °F - 14.0 °F 17% 30.07 in 10.0 mi WSW 8.1 mph - N/A   Clear
2:15 PM 57.2 °F - 15.8 °F 20% 30.05 in 10.0 mi Calm Calm - N/A   Clear
2:35 PM 59.0 °F - 14.0 °F 17% 30.03 in 10.0 mi WNW 9.2 mph - N/A   Clear
2:55 PM 59.0 °F - 14.0 °F 17% 30.02 in 10.0 mi NW 4.6 mph - N/A   Clear
3:15 PM 59.0 °F - 17.6 °F 20% 30.00 in 10.0 mi WNW 5.8 mph - N/A   Clear
3:35 PM 59.0 °F - 15.8 °F 19% 29.98 in 10.0 mi SW 6.9 mph 10.4 mph N/A   Clear
3:55 PM 59.0 °F - 17.6 °F 20% 29.98 in 10.0 mi West 10.4 mph - N/A   Clear
4:15 PM 60.8 °F - 17.6 °F 19% 29.97 in 10.0 mi West 10.4 mph 16.1 mph N/A   Clear
4:35 PM 59.0 °F - 15.8 °F 19% 29.96 in 10.0 mi WSW 11.5 mph 20.7 mph N/A   Clear
4:55 PM 59.0 °F - 15.8 °F 19% 29.95 in 10.0 mi West 12.7 mph 17.3 mph N/A   Clear
5:15 PM 59.0 °F - 14.0 °F 17% 29.95 in 10.0 mi West 15.0 mph 23.0 mph N/A   Clear
5:35 PM 59.0 °F - 14.0 °F 17% 29.95 in 10.0 mi West 12.7 mph 20.7 mph N/A   Clear
5:55 PM 59.0 °F - 14.0 °F 17% 29.94 in 10.0 mi West 11.5 mph 19.6 mph N/A   Clear
6:15 PM 59.0 °F - 14.0 °F 17% 29.94 in 10.0 mi West 12.7 mph 18.4 mph N/A   Clear
6:35 PM 57.2 °F - 14.0 °F 18% 29.94 in 10.0 mi West 11.5 mph 23.0 mph N/A   Clear
6:55 PM 55.4 °F - 14.0 °F 20% 29.94 in 10.0 mi West 16.1 mph 19.6 mph N/A   Clear
7:15 PM 55.4 °F - 15.8 °F 21% 29.94 in 10.0 mi WNW 11.5 mph 19.6 mph N/A   Clear
7:35 PM 55.4 °F - 17.6 °F 23% 29.93 in 10.0 mi West 9.2 mph - N/A   Clear
7:55 PM 53.6 °F - 17.6 °F 24% 29.92 in 10.0 mi West 8.1 mph 19.6 mph N/A   Clear
8:15 PM 51.8 °F - 19.4 °F 28% 29.92 in 10.0 mi West 8.1 mph - N/A   Clear
8:35 PM 53.6 °F - 17.6 °F 24% 29.92 in 10.0 mi West 8.1 mph 16.1 mph N/A   Clear
8:55 PM 53.6 °F - 17.6 °F 24% 29.92 in 10.0 mi West 9.2 mph - N/A   Clear
9:15 PM 51.8 °F - 19.4 °F 28% 29.92 in 10.0 mi West 11.5 mph 16.1 mph N/A   Clear
9:35 PM 51.8 °F - 19.4 °F 28% 29.92 in 10.0 mi WNW 8.1 mph 16.1 mph N/A   Clear
9:55 PM 50.0 °F - 21.2 °F 32% 29.92 in 10.0 mi West 6.9 mph - N/A   Clear
10:15 PM 50.0 °F - 21.2 °F 32% 29.92 in 10.0 mi West 6.9 mph - N/A   Clear
10:35 PM 50.0 °F - 21.2 °F 32% 29.92 in 10.0 mi West 9.2 mph - N/A   Clear
10:55 PM 48.2 °F - 23.0 °F 37% 29.92 in 10.0 mi WNW 9.2 mph - N/A   Clear
11:15 PM 50.0 °F - 23.0 °F 35% 29.92 in 10.0 mi WNW 9.2 mph - N/A   Clear
11:35 PM 48.2 °F - 23.0 °F 37% 29.93 in 10.0 mi WNW 9.2 mph - N/A   Clear
11:55 PM 50.0 °F - 23.0 °F 35% 29.93 in 10.0 mi NW 13.8 mph 20.7 mph N/A   Clear